Date String (YYYY-MM-DD hh:mm:ss) UTC,Instrument flags,absolute air pressure of the measurement (hPa),sample flow rate (lpm),inlet stack bypass flow (lpm),air temperature of the measurement (°C),ambient temperature measured by the external sensor (°C),aerosol sample conditioner tube jacket temperature (°C),OPC LED temperature (°C),internal box temperature (°C),relative humidity of the measurement (%),span deviation,mass concentration of particles derived from Lorenz-Mie calculation of OPC scattering (μg/m³),mass concentration of particles derived from Lorenz-Mie calculation of OPC scattering (μg/m³),mass concentration of particles derived from Lorenz-Mie calculation of OPC scattering (μg/m³)
DateTimeUTC,F1_M11,P_M11,Q1_M11,Q2_M11,T1_M11,T2_M11,T3_M11,T4_M11,T5_M11,U1_M11,ZSPAN_M11,X0_M11,X2_M11,X1_M11
2023-07-31 15:00:00,SystemResetWarning,0837.4,4.99,000.00,033.1,027.1,000.0,040.5,032.1,34.4,-002.0,0021.49,0007.53,0005.41
2023-07-31 15:01:00,SystemResetWarning,0837.4,5.00,000.00,033.1,027.5,000.0,040.6,032.1,34.3,-001.7,0021.14,0007.47,0005.38
2023-07-31 15:02:00,SystemResetWarning,0837.4,5.01,000.00,033.2,027.7,000.0,040.6,032.2,34.2,-000.8,0021.41,0007.42,0005.37
2023-07-31 15:03:00,SystemResetWarning,0837.4,5.01,000.00,033.2,028.0,000.0,040.7,032.2,34.4,-000.2,0021.17,0007.46,0005.36
2023-07-31 15:04:00,SystemResetWarning,0837.4,5.00,000.00,033.1,028.2,000.0,040.7,032.2,34.2,-000.0,0021.37,0007.57,0005.35
2023-07-31 15:05:00,SystemResetWarning,0837.4,5.00,000.00,033.1,028.3,000.0,040.8,032.3,34.1,0000.2,0021.04,0007.58,0005.32
2023-07-31 15:06:00,SystemResetWarning,0837.4,5.00,000.00,033.1,028.5,000.0,040.8,032.3,34.1,0000.8,0020.85,0007.54,0005.29
2023-07-31 15:07:00,SystemResetWarning,0837.4,5.00,000.00,033.0,028.6,000.0,040.8,032.3,34.5,0000.7,0020.80,0007.57,0005.30
2023-07-31 15:08:00,SystemResetWarning,0837.3,4.99,000.00,033.0,028.2,000.0,040.8,032.4,34.3,0000.3,0020.98,0007.59,0005.28
2023-07-31 15:09:00,SystemResetWarning,0837.2,4.99,000.00,033.0,026.5,000.0,040.6,032.2,34.5,0000.4,0021.15,0007.55,0005.29
2023-07-31 15:10:00,SystemResetWarning,0837.2,5.00,000.00,032.9,025.6,000.0,040.5,032.0,35.0,0000.7,0021.16,0007.53,0005.30
2023-07-31 15:11:00,SystemResetWarning,0837.2,5.02,000.00,032.8,025.5,000.0,040.5,031.7,35.3,0000.6,0020.21,0007.52,0005.32
2023-07-31 15:12:00,SystemResetWarning,0837.2,5.01,000.00,032.8,025.9,000.0,040.5,031.8,35.3,0000.8,0019.56,0007.53,0005.35
2023-07-31 15:13:00,SystemResetWarning,0837.2,5.00,000.00,033.0,026.3,000.0,040.5,031.9,35.0,0000.5,0018.29,0007.52,0005.38
2023-07-31 15:14:00,SystemResetWarning,0837.3,4.97,000.00,033.2,026.7,000.0,040.5,032.1,34.4,0000.2,0017.77,0007.41,0005.38
2023-07-31 15:15:00,SystemResetWarning,0837.3,5.02,000.00,033.3,027.1,000.0,040.6,032.1,34.1,0000.2,0017.54,0007.31,0005.40
2023-07-31 15:16:00,SystemResetWarning,0837.3,5.00,000.00,033.3,027.4,000.0,040.6,032.1,34.1,0000.1,0017.35,0007.27,0005.42
2023-07-31 15:17:00,SystemResetWarning,0837.3,5.00,000.00,033.3,027.7,000.0,040.7,032.2,34.5,0000.3,0017.57,0007.29,0005.43
2023-07-31 15:18:00,SystemResetWarning,0837.2,5.00,000.00,033.3,028.0,000.0,040.7,032.2,34.2,-000.0,0016.81,0007.23,0005.41
2023-07-31 15:19:00,SystemResetWarning,0837.2,5.00,000.00,033.2,028.2,000.0,040.8,032.3,34.0,0000.2,0016.26,0007.09,0005.38
2023-07-31 15:20:00,SystemResetWarning,0837.2,5.01,000.00,033.2,028.3,000.0,040.8,032.3,34.0,-000.2,0017.43,0007.09,0005.34
2023-07-31 15:21:00,SystemResetWarning,0837.2,5.00,000.00,033.2,028.5,000.0,040.9,032.3,34.1,-000.7,0017.83,0007.11,0005.31
2023-07-31 15:22:00,SystemResetWarning,0837.3,5.01,000.00,033.1,028.5,000.0,040.9,032.4,34.3,-001.0,0018.00,0007.07,0005.29
2023-07-31 15:23:00,SystemResetWarning,0837.2,4.99,000.00,033.2,027.3,000.0,040.7,032.3,34.4,-001.9,0018.37,0007.02,0005.27
2023-07-31 15:24:00,SystemResetWarning,0837.2,5.00,000.00,033.1,026.0,000.0,040.6,032.1,34.6,-001.2,0019.14,0007.02,0005.26
2023-07-31 15:25:00,SystemResetWarning,0837.2,5.00,000.00,033.0,025.7,000.0,040.5,031.9,35.1,-000.3,0019.24,0007.05,0005.25
2023-07-31 15:26:00,SystemResetWarning,0837.2,5.02,000.00,032.9,025.9,000.0,040.5,031.8,35.3,-000.1,0019.42,0007.05,0005.25
2023-07-31 15:27:00,SystemResetWarning,0837.2,5.00,000.00,033.0,026.3,000.0,040.6,032.0,35.2,-000.3,0019.87,0007.14,0005.28
2023-07-31 15:28:00,SystemResetWarning,0837.2,5.01,000.00,033.3,026.7,000.0,040.6,032.1,35.1,-000.9,0019.89,0007.19,0005.30
2023-07-31 15:29:00,SystemResetWarning,0837.3,4.97,000.00,033.5,027.1,000.0,040.6,032.2,34.0,-000.5,0020.34,0007.23,0005.32
2023-07-31 15:30:00,SystemResetWarning,0837.2,5.01,000.00,033.6,027.4,000.0,040.7,032.3,33.5,-000.7,0021.76,0007.29,0005.36
2023-07-31 15:31:00,SystemResetWarning,0837.3,5.00,000.00,033.7,027.7,000.0,040.8,032.3,33.5,-001.0,0022.99,0007.30,0005.38
2023-07-31 15:32:00,SystemResetWarning,0837.2,5.00,000.00,033.7,028.0,000.0,040.8,032.3,33.5,-000.8,0024.47,0007.32,0005.39
2023-07-31 15:33:00,SystemResetWarning,0837.2,5.00,000.00,033.7,028.2,000.0,040.9,032.4,33.6,-001.0,0024.52,0007.34,0005.42
2023-07-31 15:34:00,SystemResetWarning,0837.2,5.00,000.00,033.6,028.4,000.0,041.0,032.4,33.8,-000.4,0024.49,0007.46,0005.47
2023-07-31 15:35:00,SystemResetWarning,0837.2,5.00,000.00,033.6,028.5,000.0,041.1,032.4,33.7,-001.2,0024.54,0007.54,0005.48
2023-07-31 15:36:00,SystemResetWarning,0837.2,4.99,000.00,033.6,027.9,000.0,041.0,032.5,33.7,-002.1,0024.47,0007.55,0005.49
2023-07-31 15:37:00,SystemResetWarning,0837.1,4.99,000.00,033.6,026.4,000.0,040.9,032.2,33.9,-002.1,0024.45,0007.57,0005.46
2023-07-31 15:38:00,SystemResetWarning,0837.1,5.02,000.00,033.5,025.8,000.0,040.8,032.0,34.2,-002.0,0024.18,0007.64,0005.44
2023-07-31 15:39:00,SystemResetWarning,0837.1,5.00,000.00,033.3,025.9,000.0,040.8,031.8,34.7,-001.7,0024.57,0007.70,0005.47
2023-07-31 15:40:00,SystemResetWarning,0837.0,4.98,000.00,033.1,026.3,000.0,040.9,031.8,35.6,-001.8,0025.75,0007.77,0005.49
2023-07-31 15:41:00,SystemResetWarning,0837.0,5.02,000.00,033.1,026.7,000.0,040.9,032.0,35.7,-001.5,0025.43,0007.90,0005.53
2023-07-31 15:42:00,SystemResetWarning,0837.1,5.00,000.00,033.3,027.1,000.0,040.9,032.1,34.9,-001.6,0023.04,0007.97,0005.57
2023-07-31 15:43:00,SystemResetWarning,0837.2,4.97,000.00,033.5,027.4,000.0,040.9,032.3,34.3,-001.9,0020.90,0008.01,0005.58
2023-07-31 15:44:00,SystemResetWarning,0837.2,5.01,000.00,033.5,027.7,000.0,040.9,032.3,34.5,-001.4,0023.39,0008.03,0005.58
2023-07-31 15:45:00,SystemResetWarning,0837.2,5.01,000.00,033.6,028.0,000.0,040.9,032.3,34.6,-001.3,0023.64,0007.98,0005.55
2023-07-31 15:46:00,SystemResetWarning,0837.2,5.00,000.00,033.6,028.2,000.0,041.0,032.4,34.1,-000.8,0023.66,0007.96,0005.53
2023-07-31 15:47:00,SystemResetWarning,0837.2,5.00,000.00,033.5,028.3,000.0,041.0,032.4,34.2,-000.6,0025.28,0008.00,0005.52
2023-07-31 15:48:00,SystemResetWarning,0837.1,4.98,000.00,033.6,027.3,000.0,040.9,032.4,34.1,-001.2,0026.01,0008.07,0005.52
2023-07-31 15:49:00,SystemResetWarning,0837.1,5.01,000.00,033.5,026.1,000.0,040.8,032.1,34.4,-001.9,0027.23,0008.01,0005.51
2023-07-31 15:50:00,SystemResetWarning,0837.1,5.01,000.00,033.4,025.8,000.0,040.7,032.0,34.5,-002.5,0027.64,0007.94,0005.47
2023-07-31 15:51:00,SystemResetWarning,0837.0,4.97,000.00,033.2,026.0,000.0,040.8,031.8,35.1,-002.7,0027.78,0007.86,0005.44
2023-07-31 15:52:00,SystemResetWarning,0837.0,5.02,000.00,033.1,026.4,000.0,040.8,031.9,35.4,-002.5,0028.42,0007.75,0005.43
2023-07-31 15:53:00,SystemResetWarning,0837.1,5.01,000.00,033.3,026.8,000.0,040.8,032.1,35.1,-001.9,0029.35,0007.71,0005.41
2023-07-31 15:54:00,SystemResetWarning,0837.1,4.96,000.00,033.4,027.2,000.0,040.8,032.2,35.1,-001.3,0029.55,0007.67,0005.42
2023-07-31 15:55:00,SystemResetWarning,0837.1,5.05,000.00,033.6,027.5,000.0,040.9,032.3,34.7,-001.1,0026.88,0007.67,0005.43
2023-07-31 15:56:00,SystemResetWarning,0837.1,4.96,000.00,033.7,027.8,000.0,040.9,032.4,34.0,-001.3,0026.41,0007.70,0005.45
2023-07-31 15:57:00,SystemResetWarning,0837.1,5.02,000.00,033.8,028.0,000.0,040.9,032.4,34.0,-001.8,0027.78,0007.75,0005.46
2023-07-31 15:58:00,SystemResetWarning,0837.1,5.00,000.00,033.8,028.2,000.0,041.0,032.5,33.8,-002.0,0026.43,0007.73,0005.45
2023-07-31 15:59:00,SystemResetWarning,0837.1,4.99,000.00,033.8,028.2,000.0,041.0,032.5,33.9,-002.0,0026.09,0007.65,0005.44
